Other Public Products
Issued by NWS Grand Forks, ND

Home | Current Version | Previous Version | Graphics & Text | Print | Product List | Glossary On
Versions: 1 2 3 4 5 6 7 8 9 10 11 12 13 14 15 16 17 18 19 20 21 22 23 24 25 26 27 28 29 30 31 32 33 34 35 36 37 38 39 40 41 42 43 44 45 46 47 48 49 50
000
FPUS83 KFGF 251610
OPUFGF
PRAIRIE TO PINES WEATHER ROUNDUP
NATIONAL WEATHER SERVICE EASTERN NORTH DAKOTA/GRAND FORKS ND
1000 AM CST THU DEC 25 2014

 **SATELLITE DATA USED TO AUGMENT SKY COVER AT AUTOMATED STATIONS**
 *****  WEATHER ACROSS EASTERN NORTH DAKOTA  *****

CITY           SKY/WX    TMP DP  RH WIND       PRES   REMARKS
GRAND FORKS    CLOUDY    27  23  85 NW10      29.69R WCI  17
GRAND FORKS AF CLOUDY    27  27  99 NW12      29.70R WCI  17
GRAND CITY NWS   N/A     27 N/A N/A NW13        N/A  WCI  16
BUXTON         NOT AVBL
DEVILS LAKE    CLOUDY    25  19  80 NW10      29.69R WCI  15
FARGO          CLOUDY    29  25  85 NW8       29.72R WCI  21
WAHPETON ARPT  CLOUDY    28  23  80 N14       29.71R WCI  17
$$

 *****  WEATHER ACROSS CENTRAL AND WESTERN NORTH DAKOTA  *****

CITY           SKY/WX    TMP DP  RH WIND       PRES   REMARKS
JAMESTOWN      MOSUNNY   22  19  89 N10       29.72R WCI  11
BISMARCK       CLOUDY    27  24  89 NW3       29.76R
MINOT          CLOUDY    26  20  77 NW9       29.74R WCI  17
MINOT AFB      CLOUDY    26  25  99 NW10      29.74R WCI  16
GARRISON         N/A     27  23  85 N15       29.74R WCI  15
WILLISTON      CLOUDY    26  20  77 NW9       29.81R WCI  17
DICKINSON      CLOUDY    26  23  88 NW12      29.73R WCI  16
HETTINGER      CLOUDY    25  21  85 NW16      29.74R WCI  12
$$

 *****  OTHER OBSERVATIONS NORTHEAST NORTH DAKOTA  *****

CITY           SKY/WX    TMP DP  RH WIND       PRES   REMARKS
WALHALLA         N/A     27  27 100 NW10      29.71R WCI  17
LANGDON        CLOUDY    25  23  93 N13       29.68R WCI  13
CAVALIER       CLOUDY    27  23  86 NW10      29.71R WCI  17
GRAFTON        NOT AVBL
CANDO          CLOUDY    25  23  93 NW8       29.71R WCI  16
FORT TOTTEN    NOT AVBL
ROLLA          CLOUDY    25  25 100 N14       29.70R WCI  13
RUGBY          CLOUDY    25  23  93 NW10      29.72R WCI  15
 ***** THE ABOVE OBSERVATIONS ARE NON NWS ARE NOT QUALITY
        CONTROLLED AND MAY MIS-REPORT RAIN FOR SNOW...
$$

 *****  OTHER OBSERVATIONS SOUTHEAST NORTH DAKOTA *****

CITY           SKY/WX    TMP DP  RH WIND       PRES   REMARKS
COOPERSTOWN    NOT AVBL
VALLEY CITY    MIX PCPN  23  23 100 N13       29.72R WCI  11
OAKES            N/A     25  25 100 N10       29.71R WCI  15
GWINNER        MOSUNNY   25  25 100 CALM      29.72R
SHEYENNE NWR     N/A     25  22  90 NW5       29.95  WCI  19
BUFFALO        NOT AVBL
WYNDMERE         N/A     27  25  93 N9          N/A  WCI  17
 ***** THE ABOVE OBSERVATIONS ARE NON NWS ARE NOT QUALITY
       CONTROLLED AND MAY MIS-REPORT RAIN FOR SNOW...
$$

  *****  WEATHER ACROSS NORTHERN MINNESOTA  *****

CITY           SKY/WX    TMP DP  RH WIND       PRES   REMARKS
FLAG ISLAND    CLOUDY    28  25  86 NW18      29.59R WCI  16
WARROAD        CLOUDY    28  25  86 W12       29.63R WCI  18
ROSEAU         CLOUDY    28  21  74 W10G17    29.65R WCI  19
HALLOCK        CLOUDY    27  25  93 NW13      29.69R WCI  16
THF RVR FALLS  CLOUDY    27  25  93 W9        29.67R WCI  17
HALSTAD          N/A     27  23  84 NW9         N/A  WCI  18
FOSSTON        CLOUDY    27  25  93 W9        29.66R WCI  17
BAUDETTE       CLOUDY    30  26  85 VRB6      29.61R WCI  24
WASKISH        CLOUDY    30  28  93 W9G17     29.63R WCI  22
CROOKSTON      PTSUNNY   27  25  93 NW10      29.70R WCI  17
$$
  *****  WEATHER ACROSS CENTRAL AND WEST MINNESOTA  *****

CITY           SKY/WX    TMP DP  RH WIND       PRES   REMARKS
BEMIDJI        CLOUDY    28  25  88 NW5       29.64R WCI  23
PARK RAPIDS    CLOUDY    29  26  89 NW10      29.65R WCI  20
WADENA         CLOUDY    28  28 100 W8        29.66R WCI  20
DETROIT LAKES  CLOUDY    28  28 100 N7        29.68R WCI  21
MOORHEAD       CLOUDY    28  28 100 NW6       29.72R WCI  22
FERGUS FALLS   CLOUDY    27  27 100 NW10      29.72R FOG     WCI  17
ELBOW LAKE     CLOUDY    28  27  94 NW8       29.68R WCI  20
MORRIS MN      CLOUDY    30  28  93 NW6       29.68R WCI  24
STAPLES        CLOUDY    28  28 100 W8        29.67R WCI  20
WHEATON        CLOUDY    27  25  93 NW8       29.73R WCI  18
$$
  *****  WEATHER ELSEWHERE ACROSS MINNESOTA  *****

CITY           SKY/WX    TMP DP  RH WIND       PRES   REMARKS
DULUTH         CLOUDY    31  27  85 W13       29.63R WCI  21
INTRNTL FALLS  CLOUDY    30  27  88 W7        29.59R WCI  23
ELY            CLOUDY    30  27  86 W10G18    29.60R WCI  21
CLOQUET        CLOUDY    30  28  93 SW6       29.65R WCI  24
BRAINERD       CLOUDY    30  27  88 SW9       29.67R WCI  22
HIBBING        CLOUDY    32  26  78 W6        29.62R
ALEXANDRIA     CLOUDY    29  27  92 SW8       29.67R WCI  21
SAINT CLOUD    CLOUDY    33  27  78 S9        29.69R
MINNEAPOLIS    CLOUDY    32  27  81 S7        29.73R
$$

  *****  WEATHER ACROSS SOUTH DAKOTA  *****

CITY           SKY/WX    TMP DP  RH WIND       PRES   REMARKS
SIOUX FALLS    PTSUNNY   32  28  85 E7        29.65R
BROOKINGS      NOT AVBL
WATERTOWN      LGT SNOW  30  28  92 N9        29.65R FOG     WCI  22
HURON          LGT SNOW  29  27  92 N7        29.68R FOG     WCI  22
SISSETON         N/A     29  25  85 N9        29.69R WCI  20
ABERDEEN       CLOUDY    31  25  78 N13       29.70R WCI  21
MITCHELL       CLOUDY    31  28  89 NE7       29.65R WCI  24
PIERRE         LGT SNOW  31  29  92 N12       29.69R FOG     WCI  22
MOBRIDGE       CLOUDY    30  25  81 N8        29.70R WCI  22
RAPID CITY     LGT SNOW  30  27  88 N20       29.68R VSB 1   WCI  17
$$

  *****  SOME WEATHER IN NEARBY STATES *****

CITY           SKY/WX    TMP DP  RH WIND       PRES   REMARKS
GLASGOW MT     CLOUDY    25  17  72 N14       29.87R WCI  13
GREAT FALLS MT CLOUDY    23  20  88 NE6       29.88R WCI  16
CHEYENNE WY    LGT SNOW  31  28  89 NE6       29.48R VSB 3/4
SCOTTSBLUFF NE LGT SNOW  30  28  92 VRB5      29.56R VSB 3/4
OMAHA NE       PTSUNNY   37  28  70 S15       29.70R
DES MOINES IA  CLOUDY    37  28  70 S13       29.77R
DAVENPORT IA   SUNNY     37  29  72 S16       29.90R
CHICAGO IL     CLOUDY    35  27  72 SW14G26   29.95R
EAU CLAIRE WI  CLOUDY    31  26  82 SW12      29.75R WCI  22
LA CROSSE WI   CLOUDY    34  28  79 S10       29.81R
$$

  *****  SOME NATIONAL WEATHER *****

CITY           SKY/WX    TMP DP  RH WIND       PRES   REMARKS
LA GUARDIA NY  CLOUDY    50  29  44 W24G33    29.75R
RALEIGH NC     MOSUNNY   54  35  48 W9G17     30.06R
ATLANTA GA     PTSUNNY   45  34  65 NW13      30.22R
NEW ORLEANS LA MOSUNNY   52  36  54 S7        30.30R
OKLAHOMA CITY  PTSUNNY   47  24  40 S23G31    29.82R
ALBUQUERQUE NM PTSUNNY   37  10  32 VRB3      29.74R
SALT LAKE CITY LGT SNOW  30  23  75 W16       29.62R WCI  19
LOS ANGELES CA MOSUNNY   55  27  34 N8        29.85R
BOISE ID       MOCLDY    29  22  75 NW17      29.85R WCI  17
SEATTLE WA     PTCLDY    39  36  89 SE6       30.17R
$$

*** WEATHER ACROSS MANITOBA...SASKATCHEWAN AND ONTARIO ***
                ***ONTARIO***

CITY           SKY/WX    TMP DP  RH WIND       PRES   REMARKS
GERALDTON      PTSUNNY   25  23  93 W7        29.53R WCI  17
THUNDER BAY    CLOUDY    30  30 100 CALM      29.59R
SIOUX LOOKOUT  LGT SNOW  28  27  93 W3        29.53R FOG
TORONTO        CLOUDY    39  34  81 W21G30    29.73R
BIG TROUT LK   LGT SNOW  19  19 100 CALM      29.54R
PICKLE LAKE    PTSUNNY   23  21  93 CALM      29.51R
DRYDEN         LGT SNOW  28  28 100 W9        29.55R WCI  20
KENORA         LGT SNOW  27  27 100 W8        29.57R WCI  18
$$
                *** MANITOBA***

CITY           SKY/WX    TMP DP  RH WIND       PRES   REMARKS
BRANDON        CLOUDY    25  19  80 N12       29.73R WCI  14
DAUPHIN        CLOUDY    23  18  80 N9        29.76R WCI  13
ISLAND LAKE    FLURRIES  19  18  93 N6        29.60R WCI  11
PILOT MOUND      N/A     23  21  93 NW10        N/A  WCI  12
THE PAS        FLURRIES  14  10  85 NW16      29.78R WCI  -2
THOMPSON       NOT AVBL
WINNIPEG       CLOUDY    25  21  86 NW21      29.69R WCI  10
CHURCHILL      LGT SNOW  14  12  92 N17       29.71  WCI  -3
GILLAM         FLURRIES  16  12  86 N2        29.65R
$$
                ***SASKATCHEWAN***

CITY           SKY/WX    TMP DP  RH WIND       PRES   REMARKS
ESTEVAN        FLURRIES  23  19  86 NW15      29.78R WCI  10
KINDERSLEY     CLOUDY     3   0  85 N6        29.94R WCI  -8
LLOYDMINSTER   FLURRIES   9   5  85 N7        29.93R WCI  -3
PRINCE ALBERT  NOT AVBL
REGINA         CLOUDY    18  16  93 NW16G23   29.83R WCI   3
YORKTON        FLURRIES  19  18  93 NW9       29.76R WCI   9


USA.gov is the U.S. government's official web portal to all federal, state and local government web resources and services.